Simultaneous Nadir Overpasses (SNOs) Predictions

Prediction of SNOs between NOAA-19 and METOP-C Satellite Orbit:

Table of predicted SNOs for the next 14.0 days since TLE Epoch: 10/10/2020
Index Date (NOAA-19) Time (NOAA-19) Lat,Lon (NOAA-19) SZA (NOAA-19 ) Date (METOP-C) Time (METOP-C) Lat,Lon (METOP-C) SZA (METOP-C ) Distance(km) Time Diff (sec)
1 10/16/2020 02:33:10 80.20, 166.47 90.32 10/16/2020 02:34:15 80.20, 166.30 90.33 3.26 65
2 10/16/2020 03:24:09 -80.20, -26.27 89.67 10/16/2020 03:24:57 -80.20, -26.31 89.65 0.98 48
3 10/16/2020 04:15:11 80.21, 140.81 90.34 10/16/2020 04:15:37 80.19, 140.85 90.34 2.48 26
4 10/16/2020 05:06:09 -80.18, -51.61 89.64 10/16/2020 05:06:19 -80.19, -51.76 89.64 3.09 10
5 10/16/2020 05:57:11 80.20, 115.47 90.37 10/16/2020 05:56:59 80.18, 115.40 90.35 2.64 12
6 10/16/2020 06:48:10 -80.20, -77.26 89.62 10/16/2020 06:47:41 -80.18, -77.21 89.64 1.77 29
7 10/16/2020 07:39:11 80.19, 90.13 90.40 10/16/2020 07:38:20 80.19, 90.26 90.40 2.58 51
